TimeCDT,TemperatureF,Dew PointF,Humidity,Sea Level PressureIn,VisibilityMPH,Wind Direction,Wind SpeedMPH,Gust SpeedMPH,PrecipitationIn,Events,Conditions,WindDirDegrees,DateUTC
12:15 AM,44.1,29.8,57,30.00,10.0,South,11.5,-,N/A,,Clear,190,2012-10-08 05:15:00
12:35 AM,43.7,30.7,60,30.00,10.0,South,10.4,-,N/A,,Clear,190,2012-10-08 05:35:00
12:55 AM,44.4,32.0,62,29.99,10.0,South,12.7,-,N/A,,Clear,190,2012-10-08 05:55:00
1:15 AM,44.4,32.0,62,29.99,10.0,SSW,12.7,-,N/A,,Clear,200,2012-10-08 06:15:00
1:35 AM,44.2,32.5,63,29.99,10.0,SSW,12.7,18.4,N/A,,Clear,200,2012-10-08 06:35:00
1:55 AM,43.9,32.9,65,29.98,10.0,SSW,12.7,-,N/A,,Clear,200,2012-10-08 06:55:00
2:15 AM,43.9,33.1,66,29.98,10.0,SSW,15.0,19.6,N/A,,Clear,200,2012-10-08 07:15:00
2:35 AM,43.7,33.4,67,29.98,10.0,SSW,11.5,17.3,N/A,,Clear,200,2012-10-08 07:35:00
2:55 AM,43.7,33.4,67,29.98,10.0,SSW,12.7,-,N/A,,Clear,200,2012-10-08 07:55:00
3:15 AM,43.2,33.6,69,29.96,10.0,SSW,12.7,18.4,N/A,,Clear,200,2012-10-08 08:15:00
3:35 AM,42.8,33.8,70,29.96,10.0,SSW,11.5,-,N/A,,Clear,200,2012-10-08 08:35:00
3:55 AM,42.8,33.8,70,29.96,10.0,SSW,12.7,-,N/A,,Clear,200,2012-10-08 08:55:00
4:15 AM,42.4,33.8,71,29.95,10.0,SSW,12.7,-,N/A,,Clear,200,2012-10-08 09:15:00
4:35 AM,41.9,33.8,73,29.95,10.0,SSW,12.7,17.3,N/A,,Clear,200,2012-10-08 09:35:00
4:55 AM,41.9,33.6,72,29.95,10.0,SSW,11.5,16.1,N/A,,Clear,200,2012-10-08 09:55:00
5:15 AM,41.5,33.8,74,29.95,10.0,SSW,9.2,16.1,N/A,,Clear,200,2012-10-08 10:15:00
5:35 AM,41.5,33.8,74,29.95,10.0,SSW,11.5,-,N/A,,Clear,200,2012-10-08 10:35:00
5:55 AM,41.4,33.8,74,29.95,10.0,SSW,10.4,-,N/A,,Clear,200,2012-10-08 10:55:00
6:15 AM,41.2,33.8,75,29.94,10.0,SSW,10.4,-,N/A,,Clear,200,2012-10-08 11:15:00
6:35 AM,41.0,33.6,75,29.94,10.0,SSW,9.2,-,N/A,,Clear,200,2012-10-08 11:35:00
6:55 AM,41.0,33.4,74,29.94,10.0,SSW,9.2,-,N/A,,Clear,200,2012-10-08 11:55:00
7:15 AM,41.2,33.8,75,29.94,10.0,SSW,10.4,-,N/A,,Clear,200,2012-10-08 12:15:00
7:35 AM,41.4,33.8,74,29.94,10.0,SSW,11.5,-,N/A,,Clear,200,2012-10-08 12:35:00
7:55 AM,41.2,33.4,74,29.94,10.0,SSW,11.5,-,N/A,,Clear,200,2012-10-08 12:55:00
8:15 AM,41.2,33.4,74,29.93,10.0,South,10.4,-,N/A,,Clear,190,2012-10-08 13:15:00
8:35 AM,42.6,33.8,71,29.93,10.0,South,10.4,-,N/A,,Clear,190,2012-10-08 13:35:00
8:55 AM,44.1,33.8,67,29.93,10.0,South,10.4,18.4,N/A,,Clear,190,2012-10-08 13:55:00
9:15 AM,45.7,33.8,63,29.93,10.0,South,12.7,-,N/A,,Clear,190,2012-10-08 14:15:00
9:35 AM,46.9,33.4,59,29.92,10.0,South,13.8,-,N/A,,Clear,180,2012-10-08 14:35:00
9:55 AM,49.1,33.4,55,29.93,10.0,SSW,11.5,-,N/A,,Clear,200,2012-10-08 14:55:00
10:15 AM,50.9,33.8,52,29.92,10.0,South,13.8,-,N/A,,Clear,190,2012-10-08 15:15:00
10:35 AM,53.2,33.1,46,29.93,10.0,SSW,15.0,-,N/A,,Clear,210,2012-10-08 15:35:00
10:55 AM,54.7,32.9,44,29.92,10.0,South,15.0,18.4,N/A,,Clear,180,2012-10-08 15:55:00
11:15 AM,56.3,32.5,41,29.91,10.0,South,17.3,21.9,N/A,,Clear,190,2012-10-08 16:15:00
11:35 AM,58.1,32.0,37,29.91,10.0,South,16.1,-,N/A,,Clear,190,2012-10-08 16:35:00
11:55 AM,60.3,32.0,34,29.90,10.0,South,18.4,23.0,N/A,,Clear,180,2012-10-08 16:55:00
12:15 PM,61.5,32.0,33,29.88,10.0,South,19.6,25.3,N/A,,Clear,190,2012-10-08 17:15:00
12:35 PM,63.7,32.4,31,29.87,10.0,South,18.4,24.2,N/A,,Clear,180,2012-10-08 17:35:00
12:55 PM,65.1,32.0,29,29.87,10.0,South,19.6,25.3,N/A,,Clear,190,2012-10-08 17:55:00
1:35 PM,67.6,31.1,26,29.84,10.0,South,20.7,26.5,N/A,,Clear,190,2012-10-08 18:35:00
1:55 PM,68.0,31.3,26,29.83,10.0,SSW,20.7,27.6,N/A,,Clear,200,2012-10-08 18:55:00
2:15 PM,69.3,29.7,23,29.82,10.0,SSW,23.0,32.2,N/A,,Clear,200,2012-10-08 19:15:00
2:35 PM,69.4,29.1,22,29.81,10.0,South,19.6,27.6,N/A,,Clear,190,2012-10-08 19:35:00
2:55 PM,70.3,28.8,21,29.80,10.0,SSW,19.6,32.2,N/A,,Clear,200,2012-10-08 19:55:00
3:15 PM,70.7,29.7,22,29.79,10.0,South,18.4,28.8,N/A,,Clear,190,2012-10-08 20:15:00
3:35 PM,70.9,29.8,22,29.79,10.0,SSW,20.7,29.9,N/A,,Clear,210,2012-10-08 20:35:00
3:55 PM,71.4,30.2,22,29.79,10.0,SSW,20.7,27.6,N/A,,Clear,200,2012-10-08 20:55:00
4:15 PM,71.2,30.6,22,29.78,10.0,South,18.4,28.8,N/A,,Clear,180,2012-10-08 21:15:00
4:35 PM,71.6,30.9,22,29.78,10.0,SSW,19.6,26.5,N/A,,Clear,200,2012-10-08 21:35:00
4:55 PM,71.1,30.2,22,29.78,10.0,South,18.4,25.3,N/A,,Clear,190,2012-10-08 21:55:00
5:15 PM,71.2,30.7,22,29.77,10.0,SSW,18.4,25.3,N/A,,Clear,200,2012-10-08 22:15:00
5:35 PM,71.6,30.9,22,29.77,10.0,South,18.4,25.3,N/A,,Clear,190,2012-10-08 22:35:00
5:55 PM,70.0,30.6,23,29.77,10.0,South,13.8,21.9,N/A,,Clear,190,2012-10-08 22:55:00
6:15 PM,68.5,30.6,24,29.77,10.0,South,12.7,-,N/A,,Clear,190,2012-10-08 23:15:00
6:55 PM,66.6,30.6,26,29.77,10.0,South,11.5,-,N/A,,Clear,180,2012-10-08 23:55:00
7:15 PM,65.5,30.7,27,29.77,10.0,South,10.4,17.3,N/A,,Clear,180,2012-10-09 00:15:00
7:35 PM,65.3,31.1,28,29.77,10.0,South,12.7,-,N/A,,Clear,180,2012-10-09 00:35:00
7:55 PM,64.8,31.1,28,29.77,10.0,South,12.7,18.4,N/A,,Clear,170,2012-10-09 00:55:00
8:15 PM,63.9,31.5,30,29.77,10.0,South,12.7,-,N/A,,Clear,170,2012-10-09 01:15:00
8:35 PM,63.7,31.1,29,29.77,10.0,South,13.8,19.6,N/A,,Clear,170,2012-10-09 01:35:00
8:55 PM,63.7,30.9,29,29.78,10.0,South,13.8,18.4,N/A,,Clear,180,2012-10-09 01:55:00
9:15 PM,62.6,31.1,31,29.78,10.0,South,12.7,18.4,N/A,,Clear,170,2012-10-09 02:15:00
9:35 PM,61.7,31.1,32,29.78,10.0,South,10.4,-,N/A,,Clear,170,2012-10-09 02:35:00
9:55 PM,59.7,31.3,34,29.80,10.0,WNW,8.1,-,N/A,,Clear,290,2012-10-09 02:55:00
10:15 PM,61.2,31.6,33,29.81,10.0,West,5.8,16.1,N/A,,Clear,260,2012-10-09 03:15:00
10:55 PM,60.4,32.0,34,29.81,10.0,SW,9.2,-,N/A,,Clear,220,2012-10-09 03:55:00
11:15 PM,59.0,32.0,36,29.81,10.0,SSW,8.1,-,N/A,,Clear,200,2012-10-09 04:15:00
11:35 PM,57.9,32.0,37,29.81,10.0,South,8.1,16.1,N/A,,Clear,190,2012-10-09 04:35:00
11:55 PM,56.3,32.4,40,29.81,10.0,South,8.1,-,N/A,,Clear,170,2012-10-09 04:55:00